STARLINK-36153

Last updated on Fri Dec 19 2025 00:02:08 GMT+0000 (Coordinated Universal Time)

1 66934U 25286K 25352.58336806 -.01308453 00000+0 -69372-2 0 9991 2 66934 53.1560 21.0384 0000893 66.6874 55.9228 15.82646295 2938
UTC large
Height (km)
Speed (km/s)
/
Latitude / Longitude
Inclination (degrees)
Orbital Period (minutes)
Azimuth
Elevation
Range (km)
Doppler Factor

Next 0 passes for location: London (51.5072 / 0.1276)

Sorry there are no passes over London.